TimeEDT,TemperatureF,Dew PointF,Humidity,Sea Level PressureIn,VisibilityMPH,Wind Direction,Wind SpeedMPH,Gust SpeedMPH,PrecipitationIn,Events,Conditions,WindDirDegrees,DateUTC
12:53 AM,82.9,75.0,77,29.99,10.0,SSE,12.7,-,N/A,,Partly Cloudy,150,2012-09-18 04:53:00
1:53 AM,82.0,77.0,85,29.98,10.0,SSE,11.5,-,N/A,,Partly Cloudy,160,2012-09-18 05:53:00
2:53 AM,82.9,75.0,77,29.96,10.0,SSE,12.7,-,N/A,,Partly Cloudy,160,2012-09-18 06:53:00
3:53 AM,82.0,75.0,79,29.95,10.0,South,11.5,-,N/A,,Clear,190,2012-09-18 07:53:00
4:53 AM,82.0,75.0,79,29.94,10.0,South,12.7,-,N/A,,Clear,180,2012-09-18 08:53:00
5:53 AM,82.0,75.0,79,29.94,10.0,South,9.2,-,N/A,,Clear,190,2012-09-18 09:53:00
6:53 AM,82.0,75.0,79,29.94,10.0,South,11.5,-,N/A,,Clear,180,2012-09-18 10:53:00
7:53 AM,82.9,75.9,79,29.95,10.0,South,10.4,-,N/A,,Clear,180,2012-09-18 11:53:00
8:53 AM,84.0,77.0,79,29.97,10.0,South,11.5,-,N/A,,Clear,180,2012-09-18 12:53:00
9:53 AM,84.0,77.0,79,29.98,10.0,South,11.5,-,N/A,,Partly Cloudy,180,2012-09-18 13:53:00
10:30 AM,84.2,78.8,84,29.99,10.0,South,12.7,-,N/A,,Mostly Cloudy,180,2012-09-18 14:30:00
10:40 AM,84.2,78.8,84,29.99,10.0,South,11.5,-,N/A,,Scattered Clouds,180,2012-09-18 14:40:00
10:53 AM,84.9,78.1,80,29.99,10.0,South,12.7,-,N/A,,Partly Cloudy,180,2012-09-18 14:53:00
11:53 AM,86.0,77.0,74,30.00,10.0,South,11.5,-,N/A,,Clear,180,2012-09-18 15:53:00
11:59 AM,87.8,78.8,75,29.99,5.0,South,11.5,-,N/A,,Haze,180,2012-09-18 15:59:00
12:53 PM,87.1,78.1,74,30.00,5.0,South,11.5,19.6,N/A,,Haze,180,2012-09-18 16:53:00
1:53 PM,87.1,77.0,72,29.98,10.0,SSW,12.7,18.4,N/A,,Clear,200,2012-09-18 17:53:00
2:53 PM,87.1,78.1,74,29.96,10.0,SW,9.2,-,N/A,,Partly Cloudy,220,2012-09-18 18:53:00
3:53 PM,87.1,78.1,74,29.93,10.0,SW,9.2,-,N/A,,Clear,230,2012-09-18 19:53:00
4:53 PM,86.0,77.0,74,29.93,10.0,WSW,6.9,-,N/A,,Clear,240,2012-09-18 20:53:00
5:53 PM,84.9,77.0,77,29.94,10.0,SW,3.5,-,N/A,,Clear,220,2012-09-18 21:53:00
6:53 PM,84.9,75.9,74,29.95,10.0,West,4.6,-,N/A,,Clear,270,2012-09-18 22:53:00
7:53 PM,84.9,78.1,80,29.97,10.0,NW,9.2,-,N/A,,Clear,320,2012-09-18 23:53:00
8:53 PM,81.0,73.9,79,29.99,10.0,NNW,16.1,23.0,N/A,,Partly Cloudy,340,2012-09-19 00:53:00
9:53 PM,82.0,73.0,74,30.01,10.0,NNW,15.0,19.6,N/A,,Clear,330,2012-09-19 01:53:00
10:53 PM,82.0,75.0,79,30.00,10.0,NNW,13.8,-,N/A,,Clear,330,2012-09-19 02:53:00
11:53 PM,82.0,75.0,79,30.01,10.0,NNW,13.8,-,N/A,,Mostly Cloudy,330,2012-09-19 03:53:00